(293179) = 2007 AP10 = 2009 US68

Discovered at Socorro on 2007-01-10 by LINEAR.

Orbit

Orbit type: Main Belt

Note: WebGL enabled browser required.

epoch2023-02-25.0
epoch JD2460000.5
perihelion date2021-11-09.04598
perihelion JD2459527.54598
argument of perihelion (°)82.58582
ascending node (°)5.78700
inclination (°)5.66935
eccentricity0.1126409
perihelion distance (AU)2.1459543
Tisserand w.r.t. Jupiter3.5
ΔV w.r.t. Earth (km/sec)9.3
semimajor axis (AU)2.4183606
mean anomaly (°)123.94847
mean daily motion (°/day)0.26207300
aphelion distance (AU)2.691
period (years)3.76
P-vector [x]0.02888492
P-vector [y]0.87371763
P-vector [z]0.48557508
Q-vector [x]-0.99953311
Q-vector [y]0.02040579
Q-vector [z]0.02274115
absolute magnitude17.07
phase slope0.15
uncertainty0
referenceMPO 745323
observations used402
oppositions14
arc length (days)10479
first opposition used1994
last opposition used2023
residual rms (arc-secs)0.82
perturbers coarse indicatorM-v
perturbers precise indicator003Ek
first observation date used1994-10-12.0
last observation date used2023-06-21.0
computer nameMPCLINUX
JD of orbit computation2456639.813016
perihelion JD uncertainty (days)4.7292E-04
argument of perihelion uncertainty (°)1.5904E-04
ascending node uncertainty (°)6.4003E-05
inclination uncertainty (°)1.3035E-05
eccentricity uncertainty 6.6879E-08
perihelion distance uncertainty (AU)1.7127E-07
Minimum Orbit Intersection Distances (in AU)
for orbit epoch: 2460000.5, reference: E2023-M85
Mercury1.83687
Venus1.43021
Earth1.1701
Mars0.55572
Jupiter2.48242
Saturn6.93413
Uranus16.0506
Neptune27.4882

Observations

403 total observations over interval: 1994 10 12.13434 – 2023 06 21.348997
These data are available for download (format description).

Date (UT) J2000 RA J2000 Dec Magn Location Ref
1994 10 12.13434 23 36 20.06 -02 59 35.3   691 – Steward Observatory, Kitt Peak-Spacewatch MPS 313333
1994 10 12.15579 23 36 19.02 -02 59 38.1   691 – Steward Observatory, Kitt Peak-Spacewatch MPS 313333
1994 10 12.17716 23 36 18.00 -02 59 40.7 20.3 V 691 – Steward Observatory, Kitt Peak-Spacewatch MPS 313333
1996 03 24.12960 10 40 39.38 +11 30 08.1 20.7 V 691 – Steward Observatory, Kitt Peak-Spacewatch MPS 313333
1996 03 24.15079 10 40 38.39 +11 30 10.4   691 – Steward Observatory, Kitt Peak-Spacewatch MPS 313333
1996 03 24.17219 10 40 37.43 +11 30 10.7   691 – Steward Observatory, Kitt Peak-Spacewatch MPS 313333
2000 04 05.27539 12 45 23.87 -06 18 13.4 19.6   704 – Lincoln Laboratory ETS, New Mexico MPS 313333
2000 04 05.30822 12 45 21.79 -06 18 05.1 19.5   704 – Lincoln Laboratory ETS, New Mexico MPS 313333
2000 04 05.32266 12 45 20.93 -06 18 02.2 19.3   704 – Lincoln Laboratory ETS, New Mexico MPS 313333
2000 04 05.33708 12 45 20.01 -06 17 59.4 19.8   704 – Lincoln Laboratory ETS, New Mexico MPS 313333
2007 01 10.27122 08 14 00.99 +29 51 25.1 19.5   704 – Lincoln Laboratory ETS, New Mexico MPS 196446
2007 01 10.28712 08 13 59.89 +29 51 26.7 19.8   704 – Lincoln Laboratory ETS, New Mexico MPS 196446
2007 01 10.30202 08 13 58.98 +29 51 30.3 19.7   704 – Lincoln Laboratory ETS, New Mexico MPS 196446
2007 01 10.31689 08 13 57.92 +29 51 32.5 19.9   704 – Lincoln Laboratory ETS, New Mexico MPS 196446
2007 01 15.29979 08 08 21.01 +30 04 40.0 19.2 V 703 – Catalina Sky Survey MPS 196446
2007 01 15.31085 08 08 20.29 +30 04 40.9 19.9 V 703 – Catalina Sky Survey MPS 196446
2007 01 15.32178 08 08 19.50 +30 04 42.7 19.4 V 703 – Catalina Sky Survey MPS 196446
2007 01 15.33267 08 08 18.74 +30 04 45.1 17.9 V 703 – Catalina Sky Survey MPS 196446
2007 01 28.24814 07 53 34.83 +30 19 20.2 19.6 V 703 – Catalina Sky Survey MPS 312507
2007 01 28.25366 07 53 34.72 +30 19 20.1 19.6 V 703 – Catalina Sky Survey MPS 312507
2007 01 28.25921 07 53 34.33 +30 19 20.5 19.6 V 703 – Catalina Sky Survey MPS 312507
2007 01 28.26476 07 53 33.86 +30 19 21.2 19.7 V 703 – Catalina Sky Survey MPS 312507
2009 09 14.24807 23 38 10.80 -04 51 39.3   704 – Lincoln Laboratory ETS, New Mexico MPS 407569
2009 09 14.25977 23 38 10.07 -04 51 41.6   704 – Lincoln Laboratory ETS, New Mexico MPS 407569
2009 09 14.28321 23 38 08.62 -04 51 47.6   704 – Lincoln Laboratory ETS, New Mexico MPS 407569
2009 09 14.29492 23 38 07.96 -04 51 50.5   704 – Lincoln Laboratory ETS, New Mexico MPS 407569
2009 09 18.28990 23 34 10.63 -05 06 04.1 19.9 V G96 – Mt. Lemmon Survey MPS 312507
2009 09 18.29626 23 34 10.23 -05 06 05.2 19.8 V G96 – Mt. Lemmon Survey MPS 312507
2009 09 18.30266 23 34 09.84 -05 06 06.7 19.8 V G96 – Mt. Lemmon Survey MPS 312507
2009 09 18.30876 23 34 09.48 -05 06 08.1 19.8 V G96 – Mt. Lemmon Survey MPS 312507
2009 10 18.19809 23 10 11.64 -06 07 16.1 20.6 V G96 – Mt. Lemmon Survey MPS 300925
2009 10 18.20545 23 10 11.42 -06 07 16.3 20.8 V G96 – Mt. Lemmon Survey MPS 300925
2009 10 18.21289 23 10 11.20 -06 07 16.1 20.4 V G96 – Mt. Lemmon Survey MPS 300925
2009 10 18.22034 23 10 10.95 -06 07 16.3 20.4 V G96 – Mt. Lemmon Survey MPS 300925
2009 10 24.13816 23 07 53.32 -06 04 29.0 20.6 V G96 – Mt. Lemmon Survey MPS 300925
2009 10 24.14575 23 07 53.18 -06 04 29.2 20.9 V G96 – Mt. Lemmon Survey MPS 300925
2009 10 24.15322 23 07 53.04 -06 04 28.7 20.4 V G96 – Mt. Lemmon Survey MPS 300925
2009 10 24.16045 23 07 52.89 -06 04 28.3 20.5 V G96 – Mt. Lemmon Survey MPS 300925
2009 11 09.16279 23 06 54.57 -05 28 45.6 20.7 V G96 – Mt. Lemmon Survey MPS 312507
2009 11 09.16973 23 06 54.64 -05 28 43.8 20.7 V G96 – Mt. Lemmon Survey MPS 312507
2009 11 09.17668 23 06 54.72 -05 28 41.9 20.6 V G96 – Mt. Lemmon Survey MPS 312507
2009 11 09.18377 23 06 54.75 -05 28 40.9 20.9 V G96 – Mt. Lemmon Survey MPS 312507
2011 01 26.34336 11 00 28.95 +12 42 59.7   691 – Steward Observatory, Kitt Peak-Spacewatch MPS 367076
2011 01 26.36111 11 00 28.37 +12 43 02.1   691 – Steward Observatory, Kitt Peak-Spacewatch MPS 367076
2011 01 26.37885 11 00 27.84 +12 43 04.8   691 – Steward Observatory, Kitt Peak-Spacewatch MPS 367076
2011 01 30.29918 10 58 17.11 +12 53 49.1 20.3 V 691 – Steward Observatory, Kitt Peak-Spacewatch MPS 368570
2011 01 30.31698 10 58 16.42 +12 53 52.6 20.2 V 691 – Steward Observatory, Kitt Peak-Spacewatch MPS 368570
2011 01 30.33827 10 58 15.57 +12 53 56.2 20.3 V 691 – Steward Observatory, Kitt Peak-Spacewatch MPS 368570
2011 02 06.40684 10 53 11.11 +13 17 02.0 20.2 V 703 – Catalina Sky Survey MPS 369556
2011 02 06.42293 10 53 10.24 +13 17 05.5 20.4 V 703 – Catalina Sky Survey MPS 369556
2011 02 06.43100 10 53 09.92 +13 17 06.7 19.8 V 703 – Catalina Sky Survey MPS 369556
2011 02 11.31122 10 48 56.82 +13 34 44.4 20.1   704 – Lincoln Laboratory ETS, New Mexico MPS 369556
2011 02 11.32560 10 48 55.95 +13 34 49.8 20.6   704 – Lincoln Laboratory ETS, New Mexico MPS 369556
2011 02 11.35316 10 48 54.39 +13 34 55.6 20.2   704 – Lincoln Laboratory ETS, New Mexico MPS 369556
2011 02 11.36695 10 48 53.59 +13 34 57.1 20.1   704 – Lincoln Laboratory ETS, New Mexico MPS 369556
2011 02 23.36352 10 36 55.36 +14 18 07.6 19.8 V 703 – Catalina Sky Survey MPS 371443
2011 02 23.37153 10 36 54.97 +14 18 08.3 19.8 V 703 – Catalina Sky Survey MPS 371443
2011 02 23.37959 10 36 54.43 +14 18 08.6 19.7 V 703 – Catalina Sky Survey MPS 371443
2011 02 23.38776 10 36 53.82 +14 18 11.8 19.9 V 703 – Catalina Sky Survey MPS 371443
2011 03 05.31090 10 26 38.50 +14 46 28.0 20.0   704 – Lincoln Laboratory ETS, New Mexico MPS 373462
2011 03 05.32329 10 26 37.71 +14 46 28.8 20.3   704 – Lincoln Laboratory ETS, New Mexico MPS 373462
2011 03 05.33565 10 26 36.95 +14 46 31.1 20.0   704 – Lincoln Laboratory ETS, New Mexico MPS 373462
2011 03 09.19889 10 22 52.46 +14 54 14.0 19.8 V G96 – Mt. Lemmon Survey MPS 373462
2011 03 09.20826 10 22 51.92 +14 54 15.0 19.8 V G96 – Mt. Lemmon Survey MPS 373462
2011 03 09.21747 10 22 51.34 +14 54 15.8 19.7 V G96 – Mt. Lemmon Survey MPS 373462
2011 03 09.22675 10 22 50.84 +14 54 17.0 19.6 V G96 – Mt. Lemmon Survey MPS 373462
2013 09 12.28477 02 01 04.33 +13 54 00.8 20.2 r I41 – Palomar Mountain--ZTF MPS 477586
2013 09 12.38932 02 01 02.45 +13 54 13.1 20.4 r I41 – Palomar Mountain--ZTF MPS 477586
2013 09 12.42918 02 01 01.72 +13 54 17.8 20.5 r I41 – Palomar Mountain--ZTF MPS 477586
2013 09 29.38140 01 52 07.95 +14 06 15.0 20.0 r I41 – Palomar Mountain--ZTF MPS 479910
2013 09 29.41442 01 52 06.36 +14 06 14.0 19.9 r I41 – Palomar Mountain--ZTF MPS 479910
2013 09 29.44692 01 52 04.80 +14 06 13.0 20.0 r I41 – Palomar Mountain--ZTF MPS 479910
2013 09 29.64258 01 51 56.18 +14 06 07.2 20.9 R D29 – Purple Mountain Observatory, XuYi Station MPS 487028
2013 09 29.65849 01 51 55.40 +14 06 06.2 20.9 R D29 – Purple Mountain Observatory, XuYi Station MPS 487028
2013 09 29.67440 01 51 54.62 +14 06 06.2 20.7 R D29 – Purple Mountain Observatory, XuYi Station MPS 487028
2013 09 30.38280 01 51 21.36 +14 05 40.5 20.0 r I41 – Palomar Mountain--ZTF MPS 479910
2013 09 30.41729 01 51 19.68 +14 05 39.0 19.9 r I41 – Palomar Mountain--ZTF MPS 479910
2013 10 01.31902 01 50 36.69 +14 05 00.3 19.9 r I41 – Palomar Mountain--ZTF MPS 479910
2013 10 01.35287 01 50 34.95 +14 04 58.8 19.9 r I41 – Palomar Mountain--ZTF MPS 479910
2013 10 01.38618 01 50 33.26 +14 04 57.2 20.1 r I41 – Palomar Mountain--ZTF MPS 479910
2013 10 02.32242 01 49 47.24 +14 04 09.4 19.9 r I41 – Palomar Mountain--ZTF MPS 479910
2013 10 02.35558 01 49 45.51 +14 04 07.5 19.9 r I41 – Palomar Mountain--ZTF MPS 479910
2013 10 03.20453 01 49 02.86 +14 03 17.6 19.9 V 691 – Steward Observatory, Kitt Peak-Spacewatch MPS 479910
2013 10 03.22274 01 49 01.86 +14 03 16.5 20.1 V 691 – Steward Observatory, Kitt Peak-Spacewatch MPS 479910
2013 10 03.24120 01 49 00.90 +14 03 15.5 20.0 V 691 – Steward Observatory, Kitt Peak-Spacewatch MPS 479910
2013 10 03.25779 01 49 00.06 +14 03 14.2 19.9 r I41 – Palomar Mountain--ZTF MPS 482168
2013 10 03.29225 01 48 58.22 +14 03 12.2 19.7 r I41 – Palomar Mountain--ZTF MPS 482168
2013 10 03.32577 01 48 56.42 +14 03 10.2 19.9 r I41 – Palomar Mountain--ZTF MPS 482168
2013 10 07.18508 01 45 29.78 +13 58 07.1 19.9 V 691 – Steward Observatory, Kitt Peak-Spacewatch MPS 482168
